Volver al catálogo

FENGYUN 1C DEB

ActivoSSO
NORAD 30142·DEBRIS·🇨🇳 China

Lanzado May 10, 1999 desde Taiyuan Satellite Launch Center

Loading…

Próximos Pases (próximas 24 horas)

TLE

ActualizadoSource: Space-Track

Época: Sep 14, 2026, 04:42 UTC

1 30142U 99025SX  26257.19601013  .00001890  00000-0  10102-2 0  9992
2 30142  99.1179 342.3679 0100087 255.4118 103.5937 14.11956540  1852

Sigue FENGYUN 1C DEB en tiempo real con AllMySat

Download on the App Store